User: anonymous   Login
Location: Huntington Beach
(33.6600°N, 117.9980°W)
Time: 09:21:58
(UTC-08:00)
Language:

SL-16 R/B - Orbit

View from above orbital plane
View from above orbital plane
View from above satellite
View from above satellite

Ground track
Ground track

The orbit data is extracted from the following two-line orbital elements,

1 28353U 04021B   14354.11110080  .00000280  00000-0  17182-3 0  9090
2 28353 070.9997 186.9340 0003897 162.1793 336.6899 14.14103440543504
Epoch (UTC): 20 December 2014 02:39:59
Eccentricity: 0.0003897
inclination: 70.9997°
perigee height: 842 km
apogee height: 848 km
right ascension of ascending node: 186.9340°
argument of perigee: 162.1793°
revolutions per day: 14.14103440
mean anomaly at epoch: 336.6899°
orbit number at epoch: 54350

The dashed part of the orbit path shows where the satellite is in the earth's shadow,  

DLR